Powrót do katalogu

DELTA 1 DEB

AktywnyLEO
NORAD 10834·DEBRIS·🇺🇸 United States

Wystrzelony Jul 29, 1976 z Vandenberg Space Force Base

Loading…

Następne Przeloty (najbliższe 24 godziny)

TLE

ŚwieżeSource: Space-Track

Epoka: Sep 14, 2026, 06:08 UTC

1 10834U 76077CE  26257.25564708 -.00002118  00000-0 -19983-1 0  9997
2 10834 100.3595 173.6600 0149528  68.3554  83.0540 12.17912646216181

Śledź DELTA 1 DEB w czasie rzeczywistym z AllMySat

Download on the App Store